This is the latest recevied weather packets stored in our database for station/object DB0ADS-6. If no packets are shown the sender has not sent any weather packets the latest 10 day(s).
| Time | Temp. | Humidity | Pressure | Rain* | Wind** | Luminosity | Snow |
|---|---|---|---|---|---|---|---|
| 1777866068 | 11.67° C | 62% | 1012.5 hPa | 0 mm | - | - | - |
| 1777865766 | 11.67° C | 62% | 1012.7 hPa | 0 mm | - | - | - |
| 1777865465 | 11.67° C | 61% | 1012.7 hPa | 0 mm | - | - | - |
| 1777865162 | 11.67° C | 61% | 1012.6 hPa | 0 mm | - | - | - |
| 1777864864 | 11.67° C | 62% | 1012.7 hPa | 0 mm | - | - | - |
| 1777864559 | 11.11° C | 64% | 1012.7 hPa | 0 mm | - | - | - |
| 1777864278 | 11.67° C | 65% | 1012.7 hPa | 0 mm | - | - | - |
| 1777863956 | 11.67° C | 64% | 1012.6 hPa | 0 mm | - | - | - |
| 1777863654 | 12.22° C | 61% | 1012.6 hPa | 0 mm | - | - | - |
| 1777863353 | 12.22° C | 60% | 1012.6 hPa | 0 mm | - | - | - |
| 1777863051 | 12.22° C | 60% | 1012.7 hPa | 0 mm | - | - | - |
| 1777862749 | 12.78° C | 59% | 1012.7 hPa | 0 mm | - | - | - |
| 1777862448 | 13.33° C | 57% | 1012.7 hPa | 0 mm | - | - | - |
| 1777862148 | 13.33° C | 55% | 1012.6 hPa | 0 mm | - | - | - |
| 1777861844 | 13.33° C | 56% | 1012.6 hPa | 0 mm | - | - | - |
| 1777861542 | 12.78° C | 57% | 1012.5 hPa | 0 mm | - | - | - |
| 1777861240 | 12.78° C | 59% | 1012.5 hPa | 0 mm | - | - | - |
| 1777860939 | 13.33° C | 60% | 1012.5 hPa | 0 mm | - | - | - |
| 1777860637 | 13.33° C | 57% | 1012.6 hPa | 0 mm | - | - | - |
| 1777860335 | 13.33° C | 58% | 1012.6 hPa | 0 mm | - | - | - |
| 1777860053 | 13.33° C | 56% | 1012.5 hPa | 0 mm | - | - | - |
| 1777859772 | 13.33° C | 56% | 1012.5 hPa | 0 mm | - | - | - |
| 1777859450 | 13.33° C | 58% | 1012.5 hPa | 0 mm | - | - | - |
| 1777859129 | 13.33° C | 59% | 1012.5 hPa | 0 mm | - | - | - |
| 1777858826 | 13.33° C | 58% | 1012.6 hPa | 0 mm | - | - | - |
* Rain latest hour (hover to see other rain measurements)
** Current wind speed in m/s (hover to see current wind gust speed)